Weather History for Sturgis, MI

Change the Weather History Date:

Friday, January 25, 2013

  Actual Average (KHAI) Record (KHAI)
Temperature  
Mean Temperature 19 °F -  
Max Temperature 23 °F 33 °F 67 °F (1950)
Min Temperature 15 °F 17 °F -15 °F (1961)
Degree Days  
Heating Degree Days 46    
Moisture  
Dew Point 13 °F    
Average Humidity 79    
Maximum Humidity 93    
Minimum Humidity 53    
Precipitation  
Precipitation 0.00 in - - ()
Sea Level Pressure  
Sea Level Pressure 30.11 in    
Wind  
Wind Speed 8 mph (South)    
Max Wind Speed 12 mph    
Max Gust Speed -    
Visibility 7 miles    
Events Snow    
Averages and records for this station are not official NWS values.
T = Trace of Precipitation, MM = Missing Value Source: NWS Daily Summary

Daily Weather History Graph

Daily Weather History Graph

Search for Another Location

Airport:

Trip Planner

Search our weather history database for the weather conditions in past years. The results will help you decide how hot, cold, wet, or windy it might be!

Date:

Astronomy

Jan. 25, 2013 Rise Set
Actual Time 8:00 AM EST 5:48 PM EST
Civil Twilight 7:30 AM EST 6:18 PM EST
Nautical Twilight 6:56 AM EST 6:52 PM EST
Astronomical Twilight 6:23 AM EST 7:25 PM EST
Moon 4:45 PM EST (1/25) 6:39 AM EST (1/25)
Length of Visible Light 10h 48m
Length of Day
9h 48m
Waxing Gibbous, 98% of the Moon is Illuminated
Jan 25
Waxing Gibbous
Jan 26
Full
Feb 3
Last Quarter
Feb 10
New
Feb 17
First Quarter

Hourly Weather History & Observations

Time (EST) Temp. Windchill Dew Point Humidity Pressure Visibility Wind Dir Wind Speed Gust Speed Precip Events Conditions
12:15 AM 15.8 °F 5.1 °F 1.4 °F 53% 30.41 in 10.0 mi SE 8.1 mph - N/A   Overcast
12:34 AM 15.8 °F 6.1 °F 3.2 °F 58% 30.40 in 10.0 mi SE 6.9 mph - N/A   Overcast
12:55 AM 15.8 °F 4.2 °F 1.4 °F 53% 30.38 in 10.0 mi ESE 9.2 mph - N/A   Overcast
1:15 AM 15.8 °F 5.1 °F 1.4 °F 53% 30.38 in 10.0 mi ESE 8.1 mph - N/A   Mostly Cloudy
1:34 AM 15.8 °F 6.1 °F 3.2 °F 58% 30.37 in 10.0 mi ESE 6.9 mph - N/A   Mostly Cloudy
1:55 AM 15.8 °F 6.1 °F 3.2 °F 58% 30.37 in 10.0 mi SE 6.9 mph - N/A   Overcast
2:15 AM 15.8 °F 3.4 °F 5.0 °F 62% 30.35 in 10.0 mi ESE 10.4 mph - N/A   Overcast
2:34 AM 15.8 °F 7.2 °F 5.0 °F 62% 30.36 in 10.0 mi SE 5.8 mph - N/A   Overcast
2:55 AM 15.8 °F 7.2 °F 5.0 °F 62% 30.35 in 10.0 mi SE 5.8 mph - N/A   Overcast
3:15 AM 15.8 °F 5.1 °F 6.8 °F 68% 30.33 in 10.0 mi SE 8.1 mph - N/A   Overcast
3:34 AM 15.8 °F 5.1 °F 6.8 °F 68% 30.31 in 10.0 mi SSE 8.1 mph - N/A   Overcast
3:55 AM 15.8 °F 4.2 °F 6.8 °F 68% 30.30 in 10.0 mi SE 9.2 mph - N/A   Overcast
4:14 AM 15.8 °F 5.1 °F 6.8 °F 68% 30.28 in 10.0 mi SE 8.1 mph - N/A   Overcast
4:35 AM 15.8 °F 5.1 °F 8.6 °F 73% 30.26 in 10.0 mi SE 8.1 mph - N/A   Overcast
4:55 AM 15.8 °F 6.1 °F 8.6 °F 73% 30.25 in 10.0 mi SE 6.9 mph - N/A   Mostly Cloudy
5:15 AM 15.8 °F 4.2 °F 8.6 °F 73% 30.23 in 10.0 mi SE 9.2 mph - N/A   Mostly Cloudy
5:35 AM 15.8 °F 3.4 °F 8.6 °F 73% 30.22 in 10.0 mi SE 10.4 mph - N/A   Overcast
5:55 AM 15.8 °F 5.1 °F 8.6 °F 73% 30.20 in 10.0 mi SSE 8.1 mph - N/A   Mostly Cloudy
6:14 AM 15.8 °F 6.1 °F 8.6 °F 73% 30.18 in 10.0 mi SE 6.9 mph - N/A   Mostly Cloudy
6:35 AM 17.6 °F 5.0 °F 8.6 °F 68% 30.18 in 10.0 mi SE 11.5 mph - N/A   Overcast
6:55 AM 17.6 °F 9.3 °F 8.6 °F 68% 30.18 in 10.0 mi SSE 5.8 mph - N/A   Overcast
7:14 AM 15.8 °F 5.1 °F 10.4 °F 79% 30.18 in 3.0 mi SSE 8.1 mph - N/A Snow Light Snow
7:35 AM 15.8 °F 5.1 °F 12.2 °F 86% 30.16 in 2.0 mi SSE 8.1 mph - N/A Snow Light Snow
7:55 AM 15.8 °F 4.2 °F 12.2 °F 86% 30.15 in 10.0 mi SE 9.2 mph - N/A   Overcast
8:35 AM 15.8 °F 6.1 °F 12.2 °F 86% 30.14 in 10.0 mi SSE 6.9 mph - N/A   Overcast
8:55 AM 17.6 °F 10.7 °F 10.4 °F 73% 30.14 in 10.0 mi SSE 4.6 mph - N/A   Overcast
9:14 AM 17.6 °F 8.2 °F 10.4 °F 73% 30.13 in 10.0 mi SSE 6.9 mph - N/A   Overcast
9:35 AM 17.6 °F 12.3 °F 10.4 °F 73% 30.13 in 5.0 mi South 3.5 mph - N/A Snow Light Snow
9:55 AM 17.6 °F 6.4 °F 10.4 °F 73% 30.11 in 5.0 mi SSE 9.2 mph - N/A   Haze
10:14 AM 17.6 °F 8.2 °F 12.2 °F 79% 30.11 in 5.0 mi South 6.9 mph - N/A Snow Light Snow
10:35 AM 17.6 °F 7.3 °F 12.2 °F 79% 30.10 in 10.0 mi South 8.1 mph - N/A   Overcast
10:55 AM 17.6 °F 7.3 °F 14.0 °F 86% 30.10 in 5.0 mi South 8.1 mph - N/A Snow Light Snow
11:15 AM 19.4 °F 9.5 °F 14.0 °F 80% 30.10 in 5.0 mi South 8.1 mph - N/A Snow Light Snow
11:35 AM 19.4 °F 8.6 °F 14.0 °F 80% 30.09 in 5.0 mi South 9.2 mph - N/A Snow Light Snow
11:54 AM 19.4 °F 10.4 °F 14.0 °F 80% 30.07 in 4.0 mi South 6.9 mph - N/A Snow Light Snow
12:15 PM 19.4 °F 7.9 °F 15.8 °F 86% 30.06 in 3.0 mi SSW 10.4 mph - N/A Snow Light Snow
12:35 PM 19.4 °F 10.4 °F 15.8 °F 86% 30.04 in 1.8 mi South 6.9 mph - N/A Snow Light Snow
12:54 PM 19.4 °F 8.6 °F 15.8 °F 86% 30.03 in 2.5 mi SSW 9.2 mph - N/A Snow Light Snow
1:15 PM 19.4 °F 7.9 °F 15.8 °F 86% 30.01 in 5.0 mi SSW 10.4 mph - N/A Snow Light Snow
1:35 PM 19.4 °F 8.6 °F 15.8 °F 86% 30.00 in 7.0 mi SW 9.2 mph - N/A Snow Light Snow
1:54 PM 21.2 °F 10.1 °F 15.8 °F 80% 29.99 in 3.0 mi SSW 10.4 mph - N/A Snow Light Snow
2:15 PM 21.2 °F 10.9 °F 15.8 °F 80% 29.98 in 3.0 mi SW 9.2 mph - N/A Snow Light Snow
2:35 PM 21.2 °F 11.7 °F 15.8 °F 80% 29.97 in 4.0 mi SSW 8.1 mph - N/A Snow Light Snow
2:54 PM 21.2 °F 12.6 °F 15.8 °F 80% 29.98 in 7.0 mi SW 6.9 mph - N/A Snow Light Snow
3:15 PM 21.2 °F 12.6 °F 15.8 °F 80% 29.97 in 10.0 mi SW 6.9 mph - N/A Snow Light Snow
3:35 PM 21.2 °F 10.9 °F 15.8 °F 80% 29.97 in 10.0 mi SW 9.2 mph - N/A   Overcast
3:54 PM 21.2 °F 10.9 °F 15.8 °F 80% 29.97 in 7.0 mi WSW 9.2 mph - N/A Snow Light Snow
4:15 PM 21.2 °F 10.1 °F 15.8 °F 80% 29.96 in 10.0 mi SW 10.4 mph - N/A Snow Light Snow
4:35 PM 21.2 °F 10.1 °F 17.6 °F 86% 29.97 in 10.0 mi SW 10.4 mph - N/A Snow Light Snow
4:55 PM 21.2 °F 10.1 °F 17.6 °F 86% 29.97 in 10.0 mi SW 10.4 mph - N/A   Overcast
5:15 PM 21.2 °F 12.6 °F 17.6 °F 86% 29.98 in 7.0 mi WSW 6.9 mph - N/A   Overcast
5:34 PM 21.2 °F 10.9 °F 17.6 °F 86% 29.98 in 7.0 mi WSW 9.2 mph - N/A Snow Light Snow
5:55 PM 21.2 °F 13.6 °F 17.6 °F 86% 29.98 in 2.5 mi SW 5.8 mph - N/A Snow Light Snow
6:15 PM 19.4 °F 10.4 °F 17.6 °F 93% 29.98 in 2.0 mi SW 6.9 mph - N/A Snow Light Snow
6:35 PM 19.4 °F 11.5 °F 17.6 °F 93% 29.98 in 2.5 mi WSW 5.8 mph - N/A Snow Light Snow
6:55 PM 19.4 °F 11.5 °F 17.6 °F 93% 29.99 in 4.0 mi SW 5.8 mph - N/A Snow Light Snow
7:15 PM 21.2 °F 11.7 °F 17.6 °F 86% 29.99 in 5.0 mi SW 8.1 mph - N/A Snow Light Snow
7:35 PM 21.2 °F 12.6 °F 17.6 °F 86% 29.99 in 5.0 mi SW 6.9 mph - N/A Snow Light Snow
7:55 PM 21.2 °F 12.6 °F 17.6 °F 86% 29.99 in 7.0 mi SW 6.9 mph - N/A Snow Light Snow
8:15 PM 21.2 °F 12.6 °F 17.6 °F 86% 29.99 in 7.0 mi SW 6.9 mph - N/A   Overcast
8:35 PM 21.2 °F 14.9 °F 19.4 °F 93% 30.00 in 10.0 mi SW 4.6 mph - N/A   Overcast
8:55 PM 21.2 °F 16.4 °F 19.4 °F 93% 29.99 in 10.0 mi WSW 3.5 mph - N/A   Overcast
9:14 PM 21.2 °F 16.4 °F 19.4 °F 93% 30.00 in 10.0 mi WSW 3.5 mph - N/A   Overcast
9:35 PM 21.2 °F 14.9 °F 19.4 °F 93% 30.00 in 10.0 mi WSW 4.6 mph - N/A   Overcast
9:55 PM 21.2 °F - 19.4 °F 93% 30.00 in 10.0 mi Calm Calm - N/A   Overcast
10:14 PM 21.2 °F 16.4 °F 19.4 °F 93% 30.00 in 7.0 mi West 3.5 mph - N/A Snow Light Snow
10:35 PM 23.0 °F 17.0 °F 19.4 °F 86% 30.00 in 7.0 mi WSW 4.6 mph - N/A   Overcast
10:55 PM 23.0 °F 15.8 °F 19.4 °F 86% 30.01 in 5.0 mi WSW 5.8 mph - N/A Snow Light Snow
11:14 PM 21.2 °F 14.9 °F 19.4 °F 93% 30.01 in 5.0 mi WSW 4.6 mph - N/A Snow Light Snow
11:35 PM 21.2 °F 16.4 °F 19.4 °F 93% 30.02 in 5.0 mi WSW 3.5 mph - N/A Snow Light Snow
11:55 PM 21.2 °F - 19.4 °F 93% 30.03 in 5.0 mi Calm Calm - N/A Snow Light Snow